• In Romania
  • List of Countries
  • For 7 days
  • Water Temperature
  • Satellite Maps
  • Weather Map
  • Weather Widgets
  • user-avatar
    Login

    Hourly Weather Korablino

    Today, 22 July, Sunday

    Time Temperature Precipitation Wind Pressure Humidity
    00:00 +19°C° 0 mm 4 mps 740 mmHg 96%
    01:00 +19°C° 0 mm 4 mps 740 mmHg 96%
    02:00 +19°C° 0 mm 4 mps 740 mmHg 97%
    03:00 +19°C° 0 mm 3 mps 740 mmHg 98%
    04:00 +19°C° 0.1 mm 3 mps 740 mmHg 98%
    05:00 +19°C° 0.1 mm 4 mps 740 mmHg 97%
    06:00 +19°C° 0.1 mm 5 mps 740 mmHg 97%
    07:00 +20°C° 0 mm 5 mps 740 mmHg 96%
    08:00 +20°C° 0 mm 5 mps 741 mmHg 95%
    09:00 +20°C° 0 mm 5 mps 741 mmHg 94%
    10:00 +20°C° 0 mm 5 mps 741 mmHg 93%
    11:00 +21°C° 0 mm 5 mps 741 mmHg 91%
    12:00 +21°C° 0 mm 5 mps 741 mmHg 90%
    13:00 +21°C° 0 mm 5 mps 741 mmHg 88%
    14:00 +22°C° 0 mm 6 mps 741 mmHg 86%
    15:00 +22°C° 0 mm 6 mps 741 mmHg 84%
    16:00 +22°C° 0.3 mm 5 mps 741 mmHg 85%
    17:00 +22°C° 0.3 mm 5 mps 741 mmHg 85%
    18:00 +22°C° 0.3 mm 5 mps 741 mmHg 85%
    19:00 +21°C° 0.1 mm 5 mps 741 mmHg 88%
    20:00 +21°C° 0.1 mm 5 mps 741 mmHg 90%
    21:00 +20°C° 0.1 mm 5 mps 741 mmHg 93%
    22:00 +20°C° 0.3 mm 5 mps 740 mmHg 93%
    23:00 +19°C° 0.3 mm 5 mps 740 mmHg 93%

    Tomorrow, 23 July, Monday

    Time Temperature Precipitation Wind Pressure Humidity
    00:00 +19°C° 0.3 mm 5 mps 740 mmHg 93%
    01:00 +19°C° 0.1 mm 5 mps 740 mmHg 93%
    02:00 +19°C° 0.1 mm 5 mps 740 mmHg 93%
    03:00 +19°C° 0.1 mm 5 mps 740 mmHg 93%
    04:00 +17°C° 0.1 mm 5 mps 741 mmHg 93%
    05:00 +17°C° 0.1 mm 5 mps 741 mmHg 93%
    06:00 +17°C° 0.1 mm 5 mps 741 mmHg 94%
    07:00 +17°C° 0.1 mm 5 mps 741 mmHg 93%
    08:00 +17°C° 0.1 mm 5 mps 741 mmHg 92%
    09:00 +17°C° 0.1 mm 6 mps 741 mmHg 92%
    10:00 +17°C° 0.2 mm 6 mps 741 mmHg 91%
    11:00 +17°C° 0.2 mm 5 mps 741 mmHg 90%
    12:00 +19°C° 0.2 mm 5 mps 741 mmHg 89%
    13:00 +19°C° 0.4 mm 5 mps 741 mmHg 89%
    14:00 +20°C° 0.4 mm 5 mps 741 mmHg 89%
    15:00 +20°C° 0.4 mm 5 mps 741 mmHg 89%
    16:00 +20°C° 0.1 mm 5 mps 741 mmHg 89%
    17:00 +21°C° 0.1 mm 5 mps 741 mmHg 89%
    18:00 +21°C° 0.1 mm 5 mps 741 mmHg 89%
    19:00 +21°C° 0.6 mm 5 mps 741 mmHg 91%
    20:00 +20°C° 0.6 mm 5 mps 741 mmHg 93%
    21:00 +20°C° 0.6 mm 5 mps 741 mmHg 95%
    22:00 +20°C° 0.8 mm 5 mps 741 mmHg 95%
    23:00 +20°C° 0.8 mm 5 mps 742 mmHg 96%

    Day after tomorrow, 24 July, Tuesday

    Time Temperature Precipitation Wind Pressure Humidity
    00:00 +20°C° 0.8 mm 5 mps 742 mmHg 96%
    01:00 +20°C° 0.1 mm 4 mps 742 mmHg 96%
    02:00 +20°C° 0.1 mm 4 mps 742 mmHg 96%
    03:00 +19°C° 0.1 mm 4 mps 742 mmHg 97%
    04:00 +19°C° 0 mm 4 mps 742 mmHg 96%
    05:00 +19°C° 0 mm 4 mps 742 mmHg 96%
    06:00 +19°C° 0 mm 4 mps 742 mmHg 96%
    07:00 +20°C° 0 mm 4 mps 743 mmHg 94%
    08:00 +21°C° 0 mm 4 mps 743 mmHg 91%
    09:00 +22°C° 0 mm 4 mps 743 mmHg 89%
    10:00 +23°C° 0.3 mm 4 mps 743 mmHg 85%
    11:00 +26°C° 0.3 mm 4 mps 744 mmHg 81%
    12:00 +27°C° 0.3 mm 4 mps 744 mmHg 77%
    13:00 +27°C° 0.6 mm 4 mps 744 mmHg 77%
    14:00 +27°C° 0.6 mm 4 mps 744 mmHg 76%
    15:00 +27°C° 0.6 mm 5 mps 744 mmHg 75%
    16:00 +26°C° 1 mm 4 mps 744 mmHg 79%
    17:00 +25°C° 1 mm 4 mps 745 mmHg 83%
    18:00 +23°C° 1 mm 4 mps 745 mmHg 88%
    19:00 +22°C° 0.4 mm 4 mps 745 mmHg 90%
    20:00 +21°C° 0.4 mm 4 mps 745 mmHg 92%
    21:00 +20°C° 0.4 mm 4 mps 745 mmHg 94%
    22:00 +20°C° 0.1 mm 3 mps 746 mmHg 94%
    23:00 +19°C° 0.1 mm 3 mps 746 mmHg 94%

    25 July, Wednesday

    Time Temperature Precipitation Wind Pressure Humidity
    00:00 +19°C° 0.1 mm 3 mps 746 mmHg 93%
    01:00 +19°C° 0 mm 3 mps 746 mmHg 93%
    02:00 +19°C° 0 mm 3 mps 746 mmHg 92%
    03:00 +18°C° 0 mm 3 mps 746 mmHg 91%
    04:00 +18°C° 0 mm 4 mps 746 mmHg 89%
    05:00 +18°C° 0 mm 4 mps 746 mmHg 87%
    06:00 +17°C° 0 mm 5 mps 746 mmHg 85%
    07:00 +19°C° 0 mm 5 mps 746 mmHg 82%
    08:00 +20°C° 0 mm 6 mps 746 mmHg 78%
    09:00 +20°C° 0 mm 6 mps 746 mmHg 75%
    10:00 +21°C° 0 mm 6 mps 747 mmHg 71%
    11:00 +22°C° 0 mm 6 mps 747 mmHg 67%
    12:00 +23°C° 0 mm 6 mps 747 mmHg 63%
    13:00 +24°C° 0 mm 6 mps 747 mmHg 63%
    14:00 +24°C° 0 mm 6 mps 747 mmHg 63%
    15:00 +26°C° 0 mm 6 mps 747 mmHg 63%
    16:00 +26°C° 0 mm 6 mps 747 mmHg 65%
    17:00 +25°C° 0 mm 5 mps 747 mmHg 68%
    18:00 +25°C° 0 mm 5 mps 747 mmHg 70%
    19:00 +23°C° 0 mm 4 mps 747 mmHg 71%
    20:00 +22°C° 0 mm 4 mps 748 mmHg 72%
    21:00 +21°C° 0 mm 4 mps 748 mmHg 74%
    22:00 +21°C° 0 mm 4 mps 748 mmHg 76%
    23:00 +20°C° 0 mm 4 mps 748 mmHg 78%

    26 July, Thursday

    Time Temperature Precipitation Wind Pressure Humidity
    00:00 +20°C° 0 mm 4 mps 748 mmHg 80%
    01:00 +19°C° 0 mm 4 mps 748 mmHg 82%
    02:00 +19°C° 0 mm 4 mps 748 mmHg 85%
    03:00 +18°C° 0 mm 3 mps 748 mmHg 87%
    04:00 +18°C° 0 mm 4 mps 748 mmHg 86%
    05:00 +18°C° 0 mm 4 mps 749 mmHg 86%
    06:00 +19°C° 0 mm 4 mps 749 mmHg 86%
    07:00 +20°C° 0 mm 5 mps 749 mmHg 82%
    08:00 +21°C° 0 mm 5 mps 749 mmHg 79%
    09:00 +22°C° 0 mm 5 mps 749 mmHg 76%
    10:00 +23°C° 0 mm 5 mps 749 mmHg 75%
    11:00 +23°C° 0 mm 5 mps 749 mmHg 75%
    12:00 +25°C° 0 mm 5 mps 749 mmHg 74%
    13:00 +26°C° 0 mm 5 mps 749 mmHg 73%
    14:00 +27°C° 0 mm 4 mps 749 mmHg 72%
    15:00 +27°C° 0 mm 4 mps 749 mmHg 71%
    16:00 +27°C° 0.1 mm 4 mps 749 mmHg 73%
    17:00 +27°C° 0.1 mm 3 mps 750 mmHg 74%
    18:00 +27°C° 0.1 mm 3 mps 750 mmHg 75%
    19:00 +26°C° 0 mm 3 mps 750 mmHg 77%
    20:00 +25°C° 0 mm 4 mps 750 mmHg 78%
    21:00 +23°C° 0 mm 4 mps 750 mmHg 80%
    22:00 +23°C° 0.1 mm 4 mps 750 mmHg 82%
    23:00 +22°C° 0.1 mm 3 mps 750 mmHg 84%

    27 July, Friday

    Time Temperature Precipitation Wind Pressure Humidity
    00:00 +22°C° 0.1 mm 3 mps 751 mmHg 86%
    01:00 +21°C° 0 mm 3 mps 751 mmHg 87%
    02:00 +21°C° 0 mm 3 mps 751 mmHg 88%
    03:00 +20°C° 0 mm 3 mps 751 mmHg 89%
    04:00 +20°C° 0 mm 3 mps 751 mmHg 88%
    05:00 +20°C° 0 mm 3 mps 751 mmHg 88%
    06:00 +20°C° 0 mm 3 mps 751 mmHg 88%
    07:00 +21°C° 0 mm 3 mps 752 mmHg 83%
    08:00 +23°C° 0 mm 4 mps 752 mmHg 78%
    09:00 +25°C° 0 mm 4 mps 752 mmHg 74%
    10:00 +27°C° 0 mm 4 mps 752 mmHg 68%
    11:00 +28°C° 0 mm 5 mps 752 mmHg 63%
    12:00 +29°C° 0 mm 5 mps 752 mmHg 57%
    13:00 +29°C° 0 mm 5 mps 752 mmHg 57%
    14:00 +29°C° 0 mm 5 mps 751 mmHg 57%
    15:00 +29°C° 0 mm 5 mps 751 mmHg 57%
    16:00 +29°C° 0 mm 4 mps 751 mmHg 61%
    17:00 +28°C° 0 mm 3 mps 751 mmHg 66%
    18:00 +28°C° 0 mm 3 mps 751 mmHg 71%
    19:00 +26°C° 0 mm 3 mps 751 mmHg 73%
    20:00 +25°C° 0 mm 3 mps 751 mmHg 75%
    21:00 +24°C° 0 mm 2 mps 751 mmHg 77%
    22:00 +23°C° 0 mm 2 mps 751 mmHg 78%
    23:00 +23°C° 0 mm 2 mps 751 mmHg 79%
    Show more